Lid_Strength_Index
10 13 13 12 12 12 12 13 13 12 11 12 11 11 9 8 9 9 9 9 8 8 7 7 5 5 5 6 7 7 6 5 5 5 5 4 3 2 1 -0 -0 -0 -0 0
12 14 12 12 12 12 12 13 13 12 11 12 11 11 9 8 9 9 9 9 9 9 8 8 6 5 5 6 7 6 6 6 5 5 5 3 3 1 0 0 0 0 -0 0
14 13 12 13 14 13 13 13 14 13 12 11 12 11 11 10 9 9 8 8 8 9 9 9 8 6 5 6 7 8 7 7 6 6 5 4 2 1 1 1 1 0 0 0
13 13 14 14 14 13 15 12 13 13 13 14 12 18 15 11 11 10 9 9 9 10 9 9 8 7 6 6 6 7 7 6 6 6 5 3 3 3 2 1 1 1 0 0
14 14 15 15 14 13 14 12 13 13 13 14 13 15 14 12 13 11 9 9 10 10 9 9 8 8 6 6 5 7 7 7 6 5 3 2 2 2 1 1 1 1 0 0
13 12 13 13 13 13 12 13 13 13 13 17 15 15 15 12 12 10 9 9 10 10 9 9 8 7 7 6 5 7 8 7 6 5 4 3 2 2 3 3 4 3 2 3
15 14 13 13 14 13 13 14 16 18 18 17 15 16 13 11 10 10 10 10 10 10 10 9 9 8 7 7 6 7 8 8 7 7 6 5 3 3 4 4 4 5 4 5
16 17 15 13 14 15 14 14 16 19 18 16 16 17 12 10 10 9 9 9 11 11 10 10 9 8 8 7 7 6 9 9 8 8 7 7 6 5 5 4 4 5 5 5
15 16 14 14 13 14 15 17 14 17 18 18 15 13 11 12 11 10 10 10 11 11 11 10 9 9 8 7 7 7 7 9 9 9 8 8 8 7 6 6 6 6 5 6
14 17 15 15 13 14 14 13 16 16 19 19 16 16 14 14 12 11 10 10 10 11 11 10 10 9 8 7 6 6 6 8 10 10 10 9 9 9 9 8 8 8 8 7
14 15 17 15 16 15 16 16 15 15 16 19 19 15 11 11 11 11 10 9 10 11 10 10 10 9 8 7 7 6 6 7 8 10 10 10 10 10 9 9 9 9 9 9
14 15 18 17 15 15 14 14 14 16 18 17 18 17 12 10 10 10 9 9 10 10 10 10 10 10 9 8 7 7 7 7 7 8 10 10 10 10 10 11 10 9 9 9
14 16 17 17 18 16 17 15 14 14 15 17 18 15 12 12 11 10 9 9 10 11 10 10 10 10 9 9 8 7 7 7 7 7 8 9 10 10 11 11 10 10 10 10
13 16 16 16 17 17 19 16 15 15 17 16 16 14 14 13 12 11 10 9 11 11 11 11 11 10 10 9 8 8 7 7 7 7 7 7 8 10 10 10 11 11 11 11
15 17 18 17 17 17 17 17 16 16 15 17 14 14 12 11 11 10 9 9 11 11 11 11 11 10 10 10 9 8 8 7 7 8 8 8 8 7 7 7 7 7 7 7
15 18 18 19 17 18 19 18 17 16 15 14 14 15 11 10 10 10 10 10 11 12 11 11 11 11 11 10 10 9 9 8 8 8 8 8 8 8 8 8 8 8 8 8
16 17 18 18 20 21 22 21 18 16 14 14 16 13 10 11 11 10 10 10 11 11 11 11 11 11 10 10 10 9 9 9 8 9 9 8 8 9 8 8 9 9 9 9
17 17 17 19 20 22 16 17 16 16 14 13 12 12 10 10 10 9 9 10 10 11 11 11 11 11 10 10 10 9 9 9 9 9 9 9 9 9 9 9 9 9 9 9
14 16 19 20 20 18 16 18 19 18 16 13 12 12 11 10 11 11 9 9 9 10 10 10 10 10 10 10 10 10 10 10 9 10 10 10 9 10 10 10 10 10 10 10
15 14 17 23 21 21 16 18 17 16 18 11 12 12 11 11 15 12 9 9 9 9 9 10 10 10 10 10 10 11 11 10 10 10 10 10 10 10 10 10 10 11 10 12
19 18 19 19 20 17 14 17 17 18 15 14 11 11 11 13 11 11 10 9 9 9 10 9 10 11 11 10 11 11 11 11 10 10 11 11 11 11 10 11 11 11 11 11
18 19 19 19 20 22 17 19 18 14 15 14 13 11 11 11 10 11 11 10 10 10 10 10 11 11 11 11 11 12 12 11 11 12 12 13 13 12 12 12 12 12 11 12
18 15 17 17 17 14 16 15 15 15 15 15 14 13 11 12 12 12 12 11 11 11 11 11 11 12 12 12 12 12 12 12 13 14 15 15 15 13 13 12 13 12 11 11
16 13 17 17 14 15 15 15 14 14 15 14 14 13 12 12 12 13 12 13 13 12 12 12 12 13 13 12 13 12 12 13 15 15 16 16 15 14 14 12 12 11 11 11
15 15 16 17 15 15 14 14 14 14 15 15 15 14 13 13 13 13 13 13 13 13 13 13 12 13 13 13 13 13 14 14 15 16 16 15 14 14 14 13 12 12 11 11
14 15 16 16 14 14 13 13 13 14 14 14 15 15 15 14 13 14 13 13 13 14 14 14 13 13 13 13 13 14 14 14 15 15 16 15 15 14 14 14 14 13 12 12